INTELSAT 33E DEB, 62004

Orbit data source: Space-Track

INTELSAT 33E DEB, 62004 is space debris in GEO originally from a launch on Wed, 24 Aug 2016 UTC launched from the French Guiana (FRGUI). Debris objects in space refer to the collection of defunct objects orbiting the Earth. Examples of debris include non-operational satellites, rocket bodies, and fragments generated from explosions, collisions, or faulty payload assembly.

Not visible in the next 10 days
Identifier
62004, 2016-053W
Orbit
GEO
Country
Flag of UnknownUnknown / ITSO
Related business
Manufacturer
Boeing/ES
Mission
Spacecraft
Bus & Motor
Unknown
Mass
Unknown
Launch date (UTC)
2016-08-24 (9 years ago)
Launch vehicle
Unknown
Launch site
French Guiana (FRGUI)
Object type
Payload
Rocket body
Debris
Shape & HBR
Unknown shape, 1.1 m
Radar Cross Section
RCS unknown

Expand to show TLE details & history
Last TLE update: 2 days ago

TLE from 2 days ago
0 INTELSAT 33E DEB
1 62004U 16053W   25346.06447348  .00000001  00000-0  00000-0 0  9994
2 62004   2.1269 124.3710 0203314 259.2761  98.1198  1.02631202  4295
Epoch: 2025-12-12T01:32Z
TLE epoch observation values (Epoch: 2025-12-12T01:32:50.508Z)
Latitude
Longitude
19.8379°
Altitude
35,270.008 km
Speed
3.089 km/s
True Right ascension
08h 16m 14s
True Declination
0° 00' 00"
Sunlit
Object was in daylight at epoch
Visualization orbit readout
Latitude
Unknown
Longitude
Unknown
Altitude
Unknown
Speed
Unknown
Apparent Right ascension
Unknown
Apparent Declination
Unknown
Sunlit
N/A
Visualization observer readout
Local Sidereal Time
23:30:51
Azimuth
Unknown
Elevation
Unknown
Doppler factor
Unknown
Orbital elements
Apogee altitude
35,983.054 km
Perigee altitude
34,294.853 km
Semi-major axis
41,517.091 km
Eccentricity
0.02033
Inclination
2.1269°
RAAN
124.371°
Arg. of periapsis
259.2761°
True anomaly
100.41738°
Mean anomaly
98.1198°
Eccentric anomaly
99.26949°
Mean motion
0.25657 °/min
Orbital period
1,403.14 mins
BSTAR
0
Loading maneuver chart data...
Computing Atmospheric mass density...
Loading historical data...
Loading historical data...
Loading historical data...
Loading historical data...
Loading historical data...
Loading historical data...
Loading historical data...

Documentation

Showing up to 5 results
|